Location: Monrovia
(34.7865°N, 86.7139°W)
Time: 00:29:08
(UTC+00:00)

USA 238 DEB - Pass Details

Date: 14 July 2020
Orbit: 1010 x 1203 km, 63.4° (Epoch: 08 August)

Event Time Altitude Azimuth Distance (km) Brightness Sun altitude
Exits shadow 08:20:48 29° 163° (SSE) 1,783 4.5 -23.6°
Maximum altitude 08:23:36 43° 113° (ESE) 1,401 4.4 -23.2°
Drops below altitude 10° 08:29:54 10° 44° (NE) 2,869 7.1 -22.4°
Sets 08:32:42 0° 39° (NE) 3,853 8.2 -22.1°
